Location: A�t �Alizem
(31.2076°N, 8.7872°W)
Time: 06:52:23
(UTC+00:00)

NOSS 3-2 (C) - Pass Details

Date: 27 November 2020
Orbit: 789 x 1424 km, 63.4° (Epoch: 09 January)

Event Time Altitude Azimuth Distance (km) Brightness Sun altitude
Rises 19:10:48 0° 187° (S) 3,267 6.5 -20.7°
Reaches altitude 10° 19:13:17 10° 179° (S) 2,358 5.6 -21.2°
Enters shadow 19:17:47 37° 122° (ESE) 1,266 3.7 -22.1°
